timestamp,surface_pressure_avg,surface_temp_avg,battery_voltage,lat,long
2022-01-28 00:09:00+00:00,198.2047,2.78,12.65,47.84626,-54.09684
2022-01-28 00:19:00+00:00,195.1381,2.77,12.57,47.84626,-54.09684
2022-01-28 00:29:00+00:00,197.6398,2.79,12.57,47.84626,-54.09684
2022-01-28 00:39:00+00:00,193.4781,2.8,12.57,47.84626,-54.09684
2022-01-28 00:49:00+00:00,186.7731,2.8,12.57,47.84626,-54.09684
2022-01-28 00:59:00+00:00,186.7415,2.8,12.57,47.84626,-54.09684
2022-01-28 01:09:00+00:00,188.4731,2.77,12.57,47.84626,-54.09684
2022-01-28 01:19:00+00:00,187.3615,2.7,12.57,47.84626,-54.09684
2022-01-28 01:29:00+00:00,188.5798,2.6,12.57,47.84626,-54.09684
2022-01-28 01:39:00+00:00,191.2298,2.59,12.57,47.84626,-54.09684
2022-01-28 01:49:00+00:00,188.6764,2.5,12.57,47.84626,-54.09684
2022-01-28 01:59:00+00:00,183.7064,2.4,12.57,47.84626,-54.09684
2022-01-28 02:09:00+00:00,186.7498,2.3,12.57,47.84626,-54.09684
2022-01-28 02:19:00+00:00,191.3048,2.3,12.57,47.84626,-54.09684
2022-01-28 02:29:00+00:00,190.4015,2.3,12.57,47.84626,-54.09684
2022-01-28 02:39:00+00:00,194.1715,2.2,12.57,47.84626,-54.09684
2022-01-28 02:49:00+00:00,199.7231,2.2,12.57,47.84626,-54.09684
2022-01-28 02:59:00+00:00,200.1481,2.2,12.57,47.84626,-54.09684
2022-01-28 03:09:00+00:00,197.5981,2.2,12.57,47.84626,-54.09684
2022-01-28 09:19:00+00:00,309.0229,2.3,12.41,47.84626,-54.09684
2022-01-28 09:29:00+00:00,306.3847,2.1,12.41,47.84626,-54.09684
2022-01-28 09:39:00+00:00,307.1263,2.1,12.41,47.84626,-54.09684
2022-01-28 09:49:00+00:00,294.093,2.2,12.41,47.84626,-54.09684
2022-01-28 09:59:00+00:00,283.4747,1.9,12.41,47.84626,-54.09684
2022-01-28 10:09:00+00:00,280.1697,1.92,12.41,47.84626,-54.09684
2022-01-28 12:19:00+00:00,224.4031,1.8,14.64,47.84626,-54.09684
2022-01-28 12:29:00+00:00,216.6548,1.8,14.64,47.84626,-54.09684
2022-01-28 12:39:00+00:00,214.3364,1.79,14.64,47.84626,-54.09684
2022-01-28 12:49:00+00:00,211.3781,1.79,14.64,47.84626,-54.09684
2022-01-28 12:59:00+00:00,206.6581,1.78,14.64,47.84626,-54.09684
2022-01-28 13:09:00+00:00,205.0931,1.74,14.64,47.84626,-54.09684
2022-01-28 13:19:01+00:00,202.2598,1.73,14.56,47.84626,-54.09684
2022-01-28 13:29:01+00:00,197.0581,1.7,14.56,47.84626,-54.09684
2022-01-28 13:39:01+00:00,195.8015,1.7,14.56,47.84626,-54.09684
2022-01-28 13:49:01+00:00,200.3331,1.7,14.56,47.84626,-54.09684
2022-01-28 13:59:01+00:00,200.6131,1.7,14.56,47.84626,-54.09684
2022-01-28 14:09:01+00:00,194.4431,1.7,14.56,47.84626,-54.09684
2022-01-28 14:19:00+00:00,192.8881,1.7,14.32,47.84626,-54.09684
2022-01-28 14:29:00+00:00,197.0181,1.65,14.32,47.84626,-54.09684
2022-01-28 14:39:00+00:00,191.1631,1.5,14.32,47.84626,-54.09684
2022-01-28 14:49:00+00:00,184.0965,1.3,14.32,47.84626,-54.09684
2022-01-28 14:59:00+00:00,190.1748,1.3,14.32,47.84626,-54.09684
2022-01-28 15:09:00+00:00,193.7698,1.22,14.32,47.84626,-54.09684
2022-01-28 15:19:00+00:00,187.0898,1.2,14.56,47.84626,-54.09684
2022-01-28 15:29:00+00:00,188.0965,1.2,14.56,47.84626,-54.09684
2022-01-28 15:39:00+00:00,197.4381,1.3,14.56,47.84626,-54.09684
2022-01-28 15:49:00+00:00,196.1982,1.59,14.56,47.84626,-54.09684
2022-01-28 15:59:00+00:00,192.9948,1.6,14.56,47.84626,-54.09684
2022-01-28 16:09:00+00:00,200.3948,1.6,14.56,47.84626,-54.09684
2022-01-28 16:19:00+00:00,205.0948,1.6,14.4,47.84626,-54.09684
2022-01-28 16:29:00+00:00,205.0647,1.88,14.4,47.84626,-54.09684
2022-01-28 16:39:00+00:00,210.0314,2.34,14.4,47.84626,-54.09684
2022-01-28 16:49:00+00:00,218.2664,2.54,14.4,47.84626,-54.09684
2022-01-28 16:59:00+00:00,223.8347,2.6,14.4,47.84626,-54.09684
2022-01-28 17:09:00+00:00,227.4898,2.6,14.4,47.84626,-54.09684
2022-01-28 17:19:00+00:00,234.8831,2.6,14.08,47.84626,-54.09684
2022-01-28 17:29:00+00:00,241.8015,2.6,14.08,47.84626,-54.09684
2022-01-28 17:39:00+00:00,245.2498,2.6,14.08,47.84626,-54.09684
2022-01-28 17:49:00+00:00,249.8181,2.5,14.08,47.84626,-54.09684
2022-01-28 17:59:00+00:00,256.153,2.5,14.08,47.84626,-54.09684
2022-01-28 18:09:00+00:00,258.8097,2.5,14.08,47.84626,-54.09684
2022-01-28 18:19:00+00:00,262.9364,2.5,13.92,47.84626,-54.09684
2022-01-28 18:29:00+00:00,266.3947,2.52,13.92,47.84626,-54.09684
2022-01-28 18:39:00+00:00,272.6613,2.55,13.92,47.84626,-54.09684
2022-01-28 18:49:00+00:00,277.2881,2.57,13.92,47.84626,-54.09684
2022-01-28 18:59:00+00:00,278.3164,2.71,13.92,47.84626,-54.09684
2022-01-28 19:09:00+00:00,276.9614,2.88,13.92,47.84626,-54.09684
2022-01-28 19:19:00+00:00,281.3481,3.0,13.84,47.84626,-54.09684
2022-01-28 19:29:00+00:00,283.7963,2.9,13.84,47.84626,-54.09684
2022-01-28 19:39:00+00:00,283.983,2.94,13.84,47.84626,-54.09684
2022-01-28 19:49:00+00:00,288.608,3.0,13.84,47.84626,-54.09684
2022-01-28 19:59:00+00:00,290.5464,3.0,13.84,47.84626,-54.09684
2022-01-28 20:09:00+00:00,289.1848,3.07,13.84,47.84626,-54.09684
2022-01-28 20:19:00+00:00,292.4947,3.1,13.44,47.84626,-54.09684
2022-01-28 20:29:00+00:00,300.2164,3.0,13.44,47.84626,-54.09684
2022-01-28 20:39:00+00:00,298.8063,2.9,13.44,47.84626,-54.09684
2022-01-28 20:49:00+00:00,295.3248,2.98,13.44,47.84626,-54.09684
2022-01-28 20:59:00+00:00,298.0247,3.0,13.44,47.84626,-54.09684
2022-01-28 21:09:00+00:00,299.7897,2.97,13.44,47.84626,-54.09684
2022-01-28 21:19:00+00:00,295.053,2.9,13.05,47.84626,-54.09684
2022-01-28 21:29:00+00:00,292.7947,2.9,13.05,47.84626,-54.09684
2022-01-28 21:39:00+00:00,296.5497,2.9,13.05,47.84626,-54.09684
2022-01-28 21:49:00+00:00,297.848,2.9,13.05,47.84626,-54.09684
2022-01-28 21:59:00+00:00,290.5947,2.93,13.05,47.84626,-54.09684
2022-01-28 22:09:00+00:00,282.6597,2.98,13.05,47.84626,-54.09684
2022-01-28 22:19:01+00:00,279.3765,2.99,12.73,47.84626,-54.09684
2022-01-28 22:29:01+00:00,276.2864,2.97,12.73,47.84626,-54.09684
2022-01-28 22:39:01+00:00,268.8814,2.9,12.73,47.84626,-54.09684
2022-01-28 22:49:01+00:00,263.4181,2.9,12.73,47.84626,-54.09684
2022-01-28 22:59:01+00:00,261.9747,2.98,12.73,47.84626,-54.09684
2022-01-28 23:09:01+00:00,259.2431,3.0,12.73,47.84626,-54.09684
2022-01-28 23:19:00+00:00,254.7664,3.0,12.57,47.84626,-54.09684
2022-01-28 23:29:00+00:00,246.8931,3.0,12.57,47.84626,-54.09684
2022-01-28 23:39:00+00:00,243.0497,2.98,12.57,47.84626,-54.09684
2022-01-28 23:49:00+00:00,243.3181,2.9,12.57,47.84626,-54.09684
2022-01-28 23:59:00+00:00,240.4531,2.9,12.57,47.84626,-54.09684
